Weather Roundup
Issued by NWS Springfield, MO

Home | Current Version | Previous Version | Text Only | Print | Product List | Glossary On
Versions: 1 2 3 4 5 6 7 8 9 10 11 12 13 14 15 16 17 18 19 20 21 22 23 24 25 26 27 28 29 30 31 32 33 34 35 36 37 38 39 40 41 42 43 44 45 46 47 48 49 50
000
NZUS99 KSGF 240157
HRRSGF

HOURLY WEATHER
NATIONAL WEATHER SERVICE SPRINGFIELD MO
900 PM CDT MON MAY 23 2016

......SGF CWA......

CITY           SKY/WX    TMP DP  RH WIND       PRES   REMARKS
SPRINGFIELD    PTCLDY    64  61  90 SE7       29.89F
JOPLIN         PTCLDY    64  62  93 S9        29.89R
WEST PLAINS    CLOUDY    68  59  73 CALM      29.94S
ROLLA          CLOUDY    68  55  63 SE7       29.90F
BRANSON        MOCLDY    63  63 100 CALM      29.93S FOG

......SURROUNDING SGF CWA......

CITY           SKY/WX    TMP DP  RH WIND       PRES   REMARKS
CHANUTE        PTCLDY    66  62  87 SE8       29.85F
PARSONS        CLOUDY    66  62  87 MISG      29.86F
COFFEYVILLE    MOCLDY    67  61  81 S8        29.86R
EMPORIA        CLOUDY    65  62  90 SE9       29.82F
HARRISON AR    PTCLDY    64  60  87 S5        29.93F

......KANSAS AND MISSOURI......

CITY           SKY/WX    TMP DP  RH WIND       PRES   REMARKS
KANSAS CTY INT PTCLDY    63  61  93 S8        29.86R
SEDALIA        CLOUDY    73  62  68 W8        29.87R
ST JOSEPH      PTCLDY    67  62  84 S8        29.84R
ST LOUIS       CLOUDY    76  53  44 S6        29.94R
WICHITA        CLOUDY    70  63  78 S14       29.79S
TOPEKA         CLOUDY    66  60  81 SE6       29.84R
OLATHE         PTCLDY    63  61  93 CALM      29.86R

......TENNESSEE......

CITY           SKY/WX    TMP DP  RH WIND       PRES   REMARKS
MEMPHIS        NOT AVBL
NASHVILLE      PTCLDY    72  47  40 E3        30.00R

......ARKANSAS.......

CITY           SKY/WX    TMP DP  RH WIND       PRES   REMARKS
FAYETTEVILLE   MOCLDY    63  63 100 NW3       29.93R
FT SMITH       MOCLDY    70  63  78 NE5       29.87F
LITTLE ROCK    MOCLDY    73  62  68 S6        29.92F

......OKLAHOMA.......

CITY           SKY/WX    TMP DP  RH WIND       PRES   REMARKS
TULSA          CLOUDY    70  67  90 SE10      29.84S
PONCA CITY     CLOUDY    71  65  81 SE15      29.80S
MCALESTER      CLOUDY    69  65  86 SE6       29.87F
OKLAHOMA CITY  CLOUDY    71  69  93 S12       29.83R

......IOWA............

CITY           SKY/WX    TMP DP  RH WIND       PRES   REMARKS
DES MOINES     NOT AVBL
QUAD CITIES    MOCLDY    73  47  39 S5        29.86S

......ILLINOIS........

CITY           SKY/WX    TMP DP  RH WIND       PRES   REMARKS
QUINCY         NOT AVBL
CHICAGO        MOCLDY    70  38  31 SE10      29.91S



USA.gov is the U.S. government's official web portal to all federal, state and local government web resources and services.